This demonstration page uses our WeatherBlox Daily Observations layout. Learn more.

Left ArrowRight Arrow

44.31136, -96.79839

Hourly Observations for July 23, 2015

Temp ( °F °C ) Dew Point ( °F °C ) Humidity (%) Winds ( mph kmh ) Pressure ( in mb ) Visibility ( mi km ) Precip ( " mm )
12:15 am 00:15 Clear N/A N/A N/A SSE 10 17 N/A 10 16 0.00 0.00
12:35 am 00:35 Clear 64 18 57 14 78 78 SSE 10 17 29.94 1014 10 16 0.00 0.00
12:55 am 00:55 Clear N/A N/A N/A SSE 10 17 N/A 10 16 0.00 0.00
1:15 am 01:15 Clear 64 18 57 14 78 78 SSE 10 17 29.94 1014 10 16 0.00 0.00
1:35 am 01:35 Clear 64 18 57 14 78 78 SSE 12 19 29.94 1014 10 16 0.00 0.00
1:55 am 01:55 Clear 64 18 57 14 78 78 SSE 10 17 29.94 1014 10 16 0.00 0.00
2:15 am 02:15 Clear 64 18 57 14 78 78 SSE 9 15 29.91 1013 10 16 0.00 0.00
2:35 am 02:35 Clear N/A N/A N/A SSE 12 19 N/A 10 16 0.00 0.00
2:55 am 02:55 Clear 63 17 55 13 77 77 SSE 12 19 29.94 1014 10 16 0.00 0.00
3:15 am 03:15 Clear 63 17 55 13 77 77 SSE 12 19 29.94 1014 10 16 0.00 0.00
3:35 am 03:35 Clear 63 17 55 13 77 77 SSE 12 19 29.94 1014 10 16 0.00 0.00
3:55 am 03:55 Clear 63 17 55 13 77 77 SSE 10 17 29.91 1013 10 16 0.00 0.00
4:15 am 04:15 Clear 63 17 55 13 77 77 S 13 20 29.94 1014 10 16 0.00 0.00
4:35 am 04:35 Clear 63 17 55 13 77 77 SSE 12 19 29.94 1014 10 16 0.00 0.00
4:55 am 04:55 Clear 63 17 55 13 77 77 SSE 9 15 29.91 1013 10 16 0.00 0.00
5:15 am 05:15 Clear 61 16 55 13 83 83 SSE 9 15 29.91 1013 10 16 0.00 0.00
5:35 am 05:35 Clear 61 16 55 13 83 83 SSE 9 15 29.91 1013 10 16 0.00 0.00
5:55 am 05:55 Clear 61 16 55 13 83 83 SSE 9 15 29.91 1013 10 16 0.00 0.00
6:15 am 06:15 Sunny 61 16 55 13 83 83 SSE 9 15 29.91 1013 10 16 0.00 0.00
6:35 am 06:35 Sunny 61 16 55 13 83 83 SSE 10 17 29.91 1013 10 16 0.00 0.00
6:55 am 06:55 Sunny 63 17 55 13 77 77 SSE 10 17 29.94 1014 10 16 0.00 0.00
7:15 am 07:15 Sunny 63 17 57 14 83 83 SSE 12 19 29.91 1013 10 16 0.00 0.00
7:35 am 07:35 Sunny 63 17 57 14 83 83 SSE 12 19 29.91 1013 10 16 0.00 0.00
7:55 am 07:55 Sunny 64 18 57 14 78 78 S 10 17 29.91 1013 10 16 0.00 0.00
8:15 am 08:15 Sunny 66 19 59 15 78 78 S 14 22 29.88 1012 10 16 0.00 0.00
8:35 am 08:35 Sunny N/A N/A N/A SSE 12 19 N/A 10 16 0.00 0.00
8:55 am 08:55 Sunny N/A N/A N/A SSE 13 20 N/A 10 16 0.00 0.00
9:15 am 09:15 Sunny 72 22 63 17 73 73 S 15 24 29.88 1012 10 16 0.00 0.00
9:35 am 09:35 Sunny 72 22 63 17 73 73 S 13 20 29.88 1012 10 16 0.00 0.00
9:55 am 09:55 Sunny 73 23 63 17 69 69 S 13 20 29.88 1012 10 16 0.00 0.00
10:15 am 10:15 Sunny 75 24 64 18 69 69 S 17 28 29.85 1011 10 16 0.00 0.00
10:35 am 10:35 Sunny 75 24 64 18 69 69 S 16 26 29.85 1011 10 16 0.00 0.00
10:55 am 10:55 Sunny N/A N/A N/A SSE 16 26 N/A 10 16 0.00 0.00
11:15 am 11:15 Mostly Sunny 77 25 66 19 69 69 S 16 26 29.85 1011 10 16 0.00 0.00
11:35 am 11:35 Sunny N/A N/A N/A S 18 30 N/A 10 16 0.00 0.00
11:55 am 11:55 Sunny 81 27 66 19 62 62 SSE 17 28 29.83 1010 7 11 0.00 0.00
12:15 pm 12:15 Sunny 81 27 68 20 66 66 S 17 28 29.83 1010 10 16 0.00 0.00
12:35 pm 12:35 Sunny 81 27 68 20 66 66 SSE 17 28 29.83 1010 N/A 0.00 0.00
12:55 pm 12:55 Partly Cloudy 82 28 68 20 62 62 SSE 18 30 29.83 1010 10 16 0.00 0.00
1:15 pm 13:15 Mostly Sunny 82 28 68 20 62 62 S 23 37 29.83 1010 10 16 0.00 0.00
1:35 pm 13:35 Sunny 82 28 70 21 66 66 SSE 22 35 29.83 1010 10 16 0.00 0.00
1:55 pm 13:55 Sunny 82 28 70 21 66 66 SSE 20 31 29.80 1009 10 16 0.00 0.00
2:15 pm 14:15 Sunny N/A N/A N/A SSE 22 35 N/A 10 16 0.00 0.00
2:35 pm 14:35 Partly Cloudy N/A N/A N/A SSE 18 30 N/A 10 16 0.00 0.00
2:55 pm 14:55 Partly Cloudy N/A N/A N/A SSE 18 30 N/A 10 16 0.00 0.00
3:15 pm 15:15 Mostly Cloudy N/A N/A N/A SSE 23 37 N/A 10 16 0.00 0.00
3:35 pm 15:35 Mostly Cloudy N/A N/A N/A SSE 17 28 N/A 10 16 0.00 0.00
3:55 pm 15:55 Mostly Cloudy 82 28 70 21 66 66 S 21 33 29.80 1009 10 16 0.00 0.00
4:15 pm 16:15 Mostly Cloudy 84 29 70 21 62 62 SSE 21 33 29.77 1008 10 16 0.00 0.00
4:35 pm 16:35 Cloudy N/A N/A N/A SSE 21 33 N/A 10 16 0.00 0.00
4:55 pm 16:55 Cloudy N/A N/A N/A SSE 21 33 N/A 10 16 0.00 0.00
5:15 pm 17:15 Cloudy N/A N/A N/A SSE 20 31 N/A 10 16 0.00 0.00
5:35 pm 17:35 Cloudy N/A N/A N/A SSE 17 28 N/A 10 16 0.00 0.00
5:55 pm 17:55 Cloudy N/A N/A N/A S 21 33 N/A 10 16 0.00 0.00
6:15 pm 18:15 Cloudy N/A N/A N/A SSE 23 37 N/A 10 16 0.00 0.00
6:35 pm 18:35 Cloudy N/A N/A N/A SSE 17 28 N/A 10 16 0.00 0.00
6:55 pm 18:55 Mostly Cloudy N/A N/A N/A SSE 17 28 N/A 10 16 0.00 0.00
7:15 pm 19:15 Mostly Cloudy N/A N/A N/A SSE 17 28 N/A 10 16 0.00 0.00
7:35 pm 19:35 Partly Cloudy N/A N/A N/A SSE 16 26 N/A 10 16 0.00 0.00
7:55 pm 19:55 Partly Cloudy N/A N/A N/A SSE 18 30 N/A 10 16 0.00 0.00
8:15 pm 20:15 Cloudy N/A N/A N/A SSE 17 28 N/A 10 16 0.00 0.00
8:35 pm 20:35 Cloudy N/A N/A N/A SSE 20 31 N/A 10 16 0.00 0.00
8:55 pm 20:55 Cloudy N/A N/A N/A SSE 20 31 N/A 10 16 0.00 0.00
9:15 pm 21:15 Mostly Cloudy N/A N/A N/A SSE 17 28 N/A 10 16 0.00 0.00
9:35 pm 21:35 Partly Cloudy N/A N/A N/A S 17 28 N/A 10 16 0.00 0.00
9:55 pm 21:55 Mostly Clear N/A N/A N/A SSE 15 24 N/A 10 16 0.00 0.00
10:15 pm 22:15 Mostly Clear N/A N/A N/A S 14 22 N/A 10 16 0.00 0.00
10:35 pm 22:35 Mostly Cloudy with Thunderstorms 77 25 70 21 79 79 SSE 12 19 29.77 1008 10 16 0.00 0.00
10:55 pm 22:55 Mostly Cloudy with Thunderstorms N/A N/A N/A S 32 52 N/A 8 13 0.01 0.25
11:15 pm 23:15 Partly Cloudy with Nearby Thunderstorms N/A N/A N/A S 21 33 N/A 10 16 0.05 1.27
11:35 pm 23:35 Clear 73 23 64 18 74 74 S 17 28 29.74 1007 10 16 0.05 1.27
11:55 pm 23:55 Clear with Nearby Thunderstorms 75 24 70 21 83 83 SSE 16 26 29.74 1007 10 16 0.05 1.27

Powered by AerisWeather